Location: Altavilla Irpina
(41.0000°N, 14.7833°E)
Time: 21:54:22
(UTC+00:00)

CZ-4B R/B - Pass Details

Date: 19 May 2025
Orbit: 701 x 797 km, 98.9° (Epoch: 15 June)

Event Time Altitude Azimuth Distance (km) Brightness Sun altitude
Exits shadow 19:32:29 - 178° (S) 2,384 5.7 -12.7°
Reaches altitude 10° 19:33:02 10° 179° (S) 2,165 5.4 -12.8°
Maximum altitude 19:37:42 58° 258° (WSW) 827 3.9 -13.5°
Drops below altitude 10° 19:42:29 10° 338° (NNW) 2,219 7.0 -14.1°
Sets 19:44:50 0° 343° (NNW) 3,159 7.8 -14.4°
